| time (UTC) | temp C | wind direction | speed KPH | gust KPH | rain 1hr cm | rain 24hr cm | rain mn cm | humidity % | barometer mb |
| 20260505194531 | 23 | 274 | 4.8 | 16.1 | 0.00 | 0.00 | 0.00 | 50 | 1014.8 |
| 20260505193107 | 22 | 211 | 4.8 | 14.5 | 0.00 | 0.00 | 0.00 | 52 | 1015.0 |
| 20260505191533 | 22 | 8 | 3.2 | 14.5 | 0.00 | 0.00 | 0.00 | 52 | 1015.0 |
| 20260505190031 | 22 | 341 | 4.8 | 12.9 | 0.00 | 0.00 | 0.00 | 53 | 1015.0 |
| 20260505183106 | 21 | 5 | 3.2 | 12.9 | 0.00 | 0.00 | 0.00 | 54 | 1015.2 |
| 20260505181608 | 21 | 349 | 3.2 | 11.3 | 0.00 | 0.00 | 0.00 | 54 | 1015.2 |
| 20260505180105 | 21 | 338 | 3.2 | 16.1 | 0.00 | 0.00 | 0.00 | 55 | 1015.2 |
| 20260505174531 | 21 | 192 | 3.2 | 9.7 | 0.00 | 0.00 | 0.00 | 55 | 1015.2 |
| 20260505173106 | 21 | 329 | 1.6 | 19.3 | 0.00 | 0.00 | 0.00 | 57 | 1015.1 |
| 20260505171531 | 20 | 307 | 1.6 | 9.7 | 0.00 | 0.00 | 0.00 | 58 | 1015.1 |
| 20260505170148 | 20 | 202 | 3.2 | 12.9 | 0.00 | 0.00 | 0.00 | 59 | 1015.2 |
| 20260505164530 | 19 | 329 | 1.6 | 16.1 | 0.00 | 0.00 | 0.00 | 62 | 1015.1 |
| 20260505163030 | 18 | 232 | 6.4 | 17.7 | 0.00 | 0.00 | 0.00 | 62 | 1015.0 |
| 20260505161531 | 18 | 186 | 3.2 | 16.1 | 0.00 | 0.00 | 0.00 | 64 | 1015.2 |
| 20260505153030 | 17 | 189 | 3.2 | 12.9 | 0.00 | 0.00 | 0.00 | 71 | 1015.1 |
| 20260505151644 | 16 | 184 | 3.2 | 12.9 | 0.00 | 0.00 | 0.00 | 75 | 1015.0 |
| 20260505124532 | 10 | 200 | 3.2 | 6.4 | 0.00 | 0.00 | 0.00 | 93 | 1014.1 |
| 20260505123031 | 10 | 198 | 3.2 | 6.4 | 0.00 | 0.00 | 0.00 | 93 | 1014.0 |
| 20260505120030 | 11 | 196 | 3.2 | 6.4 | 0.00 | 0.00 | 0.00 | 93 | 1013.9 |
| 20260505114608 | 11 | 187 | 4.8 | 8.0 | 0.00 | 0.00 | 0.00 | 93 | 1013.8 |
| 20260505111532 | 11 | 193 | 3.2 | 6.4 | 0.00 | 0.00 | 0.00 | 92 | 1013.7 |
| 20260505101530 | 11 | 180 | 1.6 | 6.4 | 0.00 | 0.00 | 0.00 | 90 | 1013.3 |
| 20260505094531 | 12 | 174 | 0.0 | 6.4 | 0.00 | 0.00 | 0.00 | 89 | 1013.1 |
| 20260505093038 | 12 | 193 | 3.2 | 12.9 | 0.00 | 0.00 | 0.00 | 88 | 1013.0 |
| 20260505091540 | 12 | 183 | 0.0 | 6.4 | 0.00 | 0.00 | 0.00 | 87 | 1012.9 |
| 20260505091534 | 12 | 185 | 1.6 | 6.4 | 0.00 | 0.00 | 0.00 | 86 | 1012.6 |
| 20260505084532 | 12 | 195 | 0.0 | 6.4 | 0.00 | 0.00 | 0.00 | 85 | 1012.7 |
| 20260505083029 | 13 | 190 | 0.0 | 6.4 | 0.00 | 0.00 | 0.00 | 83 | 1012.6 |
| 20260505080032 | 15 | 202 | 0.0 | 4.8 | 0.00 | 0.00 | 0.00 | 77 | 1012.3 |
| 20260505073143 | 15 | 17 | 1.6 | 8.0 | 0.00 | 0.00 | 0.00 | 77 | 1012.2 |
| 20260505071532 | 15 | 359 | 0.0 | 4.8 | 0.00 | 0.00 | 0.00 | 76 | 1012.1 |
| 20260505070112 | 16 | 23 | 0.0 | 4.8 | 0.00 | 0.00 | 0.00 | 72 | 1012.0 |
| 20260505064528 | 16 | 22 | 3.2 | 6.4 | 0.00 | 0.00 | 0.00 | 69 | 1011.8 |
| 20260505063107 | 17 | 33 | 3.2 | 6.4 | 0.00 | 0.00 | 0.00 | 68 | 1011.8 |
| 20260505061533 | 17 | 360 | 3.2 | 8.0 | 0.00 | 0.00 | 0.00 | 70 | 1011.8 |
| 20260505054531 | 15 | 170 | 0.0 | 6.4 | 0.00 | 0.00 | 0.00 | 71 | 1011.7 |
| 20260505053031 | 16 | 41 | 1.6 | 6.4 | 0.00 | 0.00 | 0.00 | 68 | 1011.7 |
| 20260505051534 | 16 | 79 | 1.6 | 4.8 | 0.00 | 0.00 | 0.00 | 68 | 1011.6 |
| 20260505041535 | 16 | 154 | 0.0 | 9.7 | 0.00 | 0.00 | 0.00 | 65 | 1010.9 |
| 20260505040042 | 17 | 180 | 0.0 | 0.0 | 0.00 | 0.00 | 0.00 | 62 | 1010.7 |
| 20260505034530 | 17 | 201 | 0.0 | 4.8 | 0.00 | 0.00 | 0.00 | 60 | 1010.5 |
| 20260505033029 | 18 | 208 | 3.2 | 9.7 | 0.00 | 0.00 | 0.00 | 61 | 1010.2 |
| 20260505031646 | 19 | 56 | 0.0 | 4.8 | 0.00 | 0.00 | 0.00 | 61 | 1010.0 |
| 20260505030033 | 20 | 163 | 1.6 | 8.0 | 0.00 | 0.00 | 0.00 | 59 | 1009.7 |
| 20260505024531 | 20 | 138 | 1.6 | 6.4 | 0.00 | 0.00 | 0.00 | 58 | 1009.5 |
| 20260505023030 | 22 | 23 | 0.0 | 3.2 | 0.00 | 0.00 | 0.00 | 54 | 1009.4 |
| 20260505021605 | 22 | 29 | 1.6 | 6.4 | 0.00 | 0.00 | 0.00 | 49 | 1009.4 |
| 20260505020030 | 23 | 68 | 1.6 | 16.1 | 0.00 | 0.00 | 0.00 | 49 | 1009.3 |
| 20260505014537 | 23 | 109 | 1.6 | 9.7 | 0.00 | 0.00 | 0.00 | 48 | 1009.2 |
| 20260505004607 | 25 | 184 | 14.5 | 32.2 | 0.00 | 0.00 | 0.00 | 42 | 1009.2 |
| 20260505003107 | 25 | 187 | 12.9 | 30.6 | 0.00 | 0.00 | 0.00 | 42 | 1009.1 |
| 20260505001529 | 25 | 185 | 14.5 | 29.0 | 0.00 | 0.00 | 0.00 | 41 | 1009.0 |
| 20260505000108 | 26 | 184 | 20.9 | 32.2 | 0.00 | 0.00 | 0.00 | 41 | 1008.9 |
| 20260504234607 | 26 | 182 | 12.9 | 27.4 | 0.00 | 0.00 | 0.00 | 40 | 1009.0 |
| 20260504233031 | 27 | 181 | 12.9 | 33.8 | 0.00 | 0.00 | 0.00 | 40 | 1008.9 |
| 20260504231529 | 27 | 183 | 11.3 | 33.8 | 0.00 | 0.00 | 0.00 | 40 | 1009.0 |
| 20260504230032 | 26 | 185 | 14.5 | 29.0 | 0.00 | 0.00 | 0.00 | 40 | 1009.1 |
| 20260504223032 | 27 | 185 | 14.5 | 29.0 | 0.00 | 0.00 | 0.00 | 41 | 1009.2 |
| 20260504221531 | 26 | 184 | 16.1 | 37.0 | 0.00 | 0.00 | 0.00 | 40 | 1009.3 |
| 20260504220031 | 27 | 185 | 16.1 | 40.2 | 0.00 | 0.00 | 0.00 | 39 | 1009.4 |
| 20260504214650 | 27 | 190 | 14.5 | 30.6 | 0.00 | 0.00 | 0.00 | 38 | 1009.5 |
| 20260504213036 | 28 | 184 | 12.9 | 29.0 | 0.00 | 0.00 | 0.00 | 38 | 1009.7 |
| 20260504211608 | 28 | 186 | 11.3 | 33.8 | 0.00 | 0.00 | 0.00 | 37 | 1009.8 |
| 20260504204530 | 28 | 185 | 8.0 | 22.5 | 0.00 | 0.00 | 0.00 | 37 | 1010.0 |
| 20260504203108 | 28 | 191 | 8.0 | 17.7 | 0.00 | 0.00 | 0.00 | 36 | 1010.3 |
| 20260504194649 | 27 | 89 | 6.4 | 19.3 | 0.00 | 0.00 | 0.00 | 38 | 1010.6 |